Tracking 28790 objects as of 18-Apr-2024
HD Live streaming from Space Station
objects crossing your sky now

SL-8 DEB

Track SL-8 DEB now!
10-day predictions


NORAD ID: 21212
Int'l Code: 1991-009BF
Perigee: 1,470.3 km
Apogee: 1,844.3 km
Inclination: 74.2 °
Period: 119.3 minutes
Semi major axis: 8028 km
RCS: 0.1545 m2 (medium)
Launch date: February 12, 1991
Source: Commonwealth of Independent States (former USSR) (CIS)
Launch site: PLESETSK MISSILE AND SPACE COMPLEX (PKMTR)

Note: This is SATELLITE DEBRIS
Your satellite tracking list
Your tracking list is empty




NASA's NSSDC Master Catalog

Two Line Element Set (TLE):
1 21212U 91009BF  24108.65813189 -.00000279  00000-0 -27802-2 0  9994
2 21212  74.1578 215.1465 0232883 249.6116 222.5042 12.06887449456327
Source of the keplerian elements: AFSPC